FW7086 Weather Reports


time (UTC)temp
C
wind
direction
speed
KPH
gust
KPH
rain 1hr
cm
rain 24hr
cm
rain mn
cm
humidity
%
barometer
mb
20260504024443 16 211 1.6 3.2 0.00 0.00 0.00 56 1007.7
20260504023940 16 147 4.8 6.4 0.00 0.00 0.00 54 1007.7
20260504023436 17 158 1.6 3.2 0.00 0.00 0.00 54 1007.7
20260504022932 17 174 3.2 3.2 0.00 0.00 0.00 54 1007.6
20260504022429 17 204 1.6 1.6 0.00 0.00 0.00 54 1007.8
20260504021925 17 210 3.2 3.2 0.00 0.00 0.00 53 1007.6
20260504021423 17 145 1.6 3.2 0.00 0.00 0.00 53 1007.6
20260504020920 17 173 3.2 4.8 0.00 0.00 0.00 52 1007.6
20260504020416 17 212 6.4 6.4 0.00 0.00 0.00 52 1007.4
20260504015913 17 169 6.4 6.4 0.00 0.00 0.00 52 1007.4
20260504015409 17 195 6.4 9.7 0.00 0.00 0.00 52 1007.4
20260504014906 17 174 8.0 11.3 0.00 0.00 0.00 51 1007.2
20260504014402 17 164 3.2 3.2 0.00 0.00 0.00 51 1007.3
20260504013859 17 249 3.2 3.2 0.00 0.00 0.00 51 1007.0
20260504013357 17 166 3.2 4.8 0.00 0.00 0.00 51 1007.1
20260504012853 17 166 4.8 6.4 0.00 0.00 0.00 50 1007.1
20260504012351 17 193 6.4 9.7 0.00 0.00 0.00 51 1007.1
20260504011848 18 210 4.8 6.4 0.00 0.00 0.00 50 1006.9
20260504011344 18 162 3.2 4.8 0.00 0.00 0.00 50 1006.9
20260504010841 18 219 3.2 3.2 0.00 0.00 0.00 50 1006.9
20260504010336 18 157 3.2 4.8 0.00 0.00 0.00 49 1006.8
20260504005833 18 183 8.0 11.3 0.00 0.00 0.00 48 1007.0
20260504005330 18 237 6.4 6.4 0.00 0.00 0.00 48 1007.0
20260504004827 18 238 6.4 9.7 0.00 0.00 0.00 47 1007.1
20260504004325 18 194 6.4 9.7 0.00 0.00 0.00 47 1007.0
20260504003821 18 194 3.2 4.8 0.00 0.00 0.00 47 1007.0
20260504003318 19 226 4.8 6.4 0.00 0.00 0.00 46 1007.0
20260504002815 19 204 4.8 6.4 0.00 0.00 0.00 45 1006.9
20260504002312 19 176 6.4 6.4 0.00 0.00 0.00 46 1007.1
20260504001809 19 213 4.8 4.8 0.00 0.00 0.00 45 1006.8
20260504001306 19 107 4.8 6.4 0.00 0.00 0.00 45 1006.9
20260504000803 20 179 3.2 4.8 0.00 0.00 0.00 44 1007.0
20260504000300 20 169 6.4 9.7 0.00 0.00 0.00 44 1006.9
20260503235758 20 231 6.4 11.3 0.00 0.00 0.00 43 1007.0
20260503235255 20 178 9.7 11.3 0.00 0.00 0.00 43 1006.8
20260503234753 20 204 4.8 4.8 0.00 0.00 0.00 43 1007.1
20260503234250 20 160 3.2 4.8 0.00 0.00 0.00 43 1007.0
20260503233748 20 182 3.2 6.4 0.00 0.00 0.00 42 1007.1
20260503233243 20 130 9.7 12.9 0.00 0.00 0.00 42 1006.9
20260503232741 20 131 6.4 6.4 0.00 0.00 0.00 42 1006.9
20260503232238 20 220 8.0 11.3 0.00 0.00 0.00 41 1006.8
20260503231736 20 155 11.3 17.7 0.00 0.00 0.00 41 1007.1
20260503231232 20 185 3.2 6.4 0.00 0.00 0.00 41 1007.3
20260503230728 20 139 6.4 9.7 0.00 0.00 0.00 41 1007.0
20260503230226 20 186 9.7 11.3 0.00 0.00 0.00 41 1007.2
20260503225723 20 130 6.4 9.7 0.00 0.00 0.00 41 1007.5
20260503225223 20 145 11.3 16.1 0.00 0.00 0.00 41 1007.3
20260503224720 20 196 6.4 9.7 0.00 0.00 0.00 40 1007.3
20260503224218 20 273 8.0 14.5 0.00 0.00 0.00 41 1007.5
20260503223715 20 203 9.7 12.9 0.00 0.00 0.00 41 1007.5
20260503223213 20 211 4.8 4.8 0.00 0.00 0.00 41 1007.5
20260503222709 20 194 3.2 4.8 0.00 0.00 0.00 41 1007.7
20260503222207 19 175 4.8 6.4 0.00 0.00 0.00 42 1007.7
20260503221706 19 178 8.0 9.7 0.00 0.00 0.00 42 1007.7
20260503221203 19 171 9.7 17.7 0.00 0.00 0.00 41 1007.8
20260503220659 19 189 11.3 12.9 0.00 0.00 0.00 41 1007.8
20260503220155 18 158 11.3 12.9 0.00 0.00 0.00 42 1007.8
20260503215653 18 188 11.3 22.5 0.00 0.00 0.00 42 1007.8
20260503215149 19 151 16.1 20.9 0.00 0.00 0.00 41 1008.0
20260503214648 19 243 9.7 14.5 0.00 0.00 0.00 41 1008.2
20260503214144 19 144 3.2 4.8 0.00 0.00 0.00 41 1008.0
20260503213643 19 192 11.3 17.7 0.00 0.00 0.00 41 1008.0
20260503213140 19 147 12.9 14.5 0.00 0.00 0.00 40 1008.3
20260503212637 19 170 8.0 11.3 0.00 0.00 0.00 40 1008.4
20260503212134 19 192 12.9 20.9 0.00 0.00 0.00 39 1008.5
20260503211632 20 189 17.7 27.4 0.00 0.00 0.00 38 1008.4
20260503211127 20 222 3.2 6.4 0.00 0.00 0.00 39 1008.7
20260503210624 18 161 16.1 25.7 0.00 0.00 0.00 39 1008.5
20260503210120 18 227 14.5 22.5 0.00 0.00 0.00 39 1008.9
20260503205616 17 160 12.9 14.5 0.00 0.00 0.00 40 1008.8
20260503205112 17 253 9.7 14.5 0.00 0.00 0.00 41 1009.0
20260503204609 17 170 17.7 25.7 0.00 0.00 0.00 40 1009.1
20260503204107 17 174 12.9 17.7 0.00 0.00 0.00 40 1009.2
20260503203604 17 186 8.0 11.3 0.00 0.00 0.00 41 1009.1
20260503203101 17 240 8.0 14.5 0.00 0.00 0.00 41 1009.3
20260503202559 17 192 22.5 29.0 0.00 0.00 0.00 40 1009.5
20260503202056 17 179 8.0 12.9 0.00 0.00 0.00 41 1009.3
20260503201554 17 197 11.3 17.7 0.00 0.00 0.00 41 1009.5
20260503201051 17 182 19.3 27.4 0.00 0.00 0.00 41 1009.5
20260503200547 18 202 27.4 37.0 0.00 0.00 0.00 42 1009.9
20260503200044 18 186 16.1 22.5 0.00 0.00 0.00 42 1009.6
20260503195541 17 171 11.3 12.9 0.00 0.00 0.00 43 1010.0
20260503195038 18 205 17.7 27.4 0.00 0.00 0.00 43 1009.9
20260503194535 17 214 3.2 4.8 0.00 0.00 0.00 46 1010.0
20260503194035 17 228 14.5 27.4 0.00 0.00 0.00 47 1010.0
20260503193532 17 167 3.2 3.2 0.00 0.00 0.00 51 1010.0
20260503193027 16 172 12.9 24.1 0.00 0.00 0.00 49 1010.2
20260503192523 16 176 22.5 29.0 0.00 0.00 0.00 51 1010.2
20260503192020 16 163 11.3 12.9 0.00 0.00 0.00 52 1010.2
20260503191517 16 152 19.3 29.0 0.00 0.00 0.00 51 1010.5
20260503191013 16 198 6.4 14.5 0.00 0.00 0.00 53 1010.5
20260503190510 15 174 9.7 20.9 0.00 0.00 0.00 53 1010.7
20260503190008 15 150 17.7 22.5 0.00 0.00 0.00 52 1010.7
20260503185504 15 250 17.7 22.5 0.00 0.00 0.00 52 1010.7
20260503185003 15 170 11.3 17.7 0.00 0.00 0.00 54 1010.8
20260503184500 15 137 9.7 14.5 0.00 0.00 0.00 55 1010.9
20260503183956 13 155 16.1 20.9 0.00 0.00 0.00 55 1011.2
20260503183453 13 170 12.9 17.7 0.00 0.00 0.00 56 1011.4
20260503182950 13 181 14.5 22.5 0.00 0.00 0.00 58 1011.6
20260503182449 13 201 12.9 16.1 0.00 0.00 0.00 60 1011.6
20260503181946 12 180 6.4 6.4 0.00 0.00 0.00 61 1011.8
20260503181443 12 157 6.4 11.3 0.00 0.00 0.00 62 1011.9
20260503180939 12 81 6.4 11.3 0.00 0.00 0.00 63 1011.9
20260503180438 12 169 19.3 25.7 0.00 0.00 0.00 63 1012.0
20260503175934 12 127 3.2 6.4 0.00 0.00 0.00 63 1012.3
20260503175432 12 192 14.5 16.1 0.00 0.00 0.00 62 1012.7
20260503174927 12 153 9.7 12.9 0.00 0.00 0.00 64 1013.0
20260503174426 12 157 16.1 20.9 0.00 0.00 0.00 63 1013.0
20260503173926 12 204 16.1 24.1 0.00 0.00 0.00 64 1013.1
20260503173422 12 148 11.3 14.5 0.00 0.00 0.00 64 1013.5
20260503172919 12 185 8.0 11.3 0.00 0.00 0.00 67 1013.6
20260503172417 12 172 11.3 14.5 0.00 0.00 0.00 66 1013.6
20260503171913 12 181 11.3 16.1 0.00 0.00 0.00 66 1013.8
20260503171410 12 173 3.2 3.2 0.00 0.00 0.00 67 1013.9
20260503170907 11 221 20.9 29.0 0.00 0.00 0.00 67 1013.9
20260503170403 11 173 8.0 11.3 0.00 0.00 0.00 70 1014.2
20260503150755 12 136 6.4 6.4 0.00 0.00 0.00 56 1014.5
20260503150251 12 164 11.3 14.5 0.00 0.00 0.00 56 1014.4
20260503140216 11 166 4.8 4.8 0.00 0.00 0.00 57 1015.6
20260503131145 10 161 1.6 1.6 0.00 0.00 0.00 58 1015.5
20260503130643 10 165 6.4 6.4 0.00 0.00 0.00 57 1015.8
20260503130140 10 136 3.2 4.8 0.00 0.00 0.00 58 1015.6
20260503120106 10 241 12.9 14.5 0.00 0.00 0.00 55 1015.5
20260503110533 8 173 1.6 3.2 0.00 0.00 0.00 58 1015.4
20260503090420 8 211 8.0 9.7 0.00 0.00 0.00 54 1015.7
20260503081346 8 195 3.2 3.2 0.00 0.00 0.00 52 1015.8
20260503080843 8 178 4.8 6.4 0.00 0.00 0.00 52 1015.9
20260503080340 8 187 0.0 1.6 0.00 0.00 0.00 52 1015.9
20260503072817 8 155 3.2 4.8 0.00 0.00 0.00 52 1016.1
20260503072314 8 229 1.6 1.6 0.00 0.00 0.00 52 1016.2
20260503071809 8 226 8.0 11.3 0.00 0.00 0.00 51 1016.3
20260503071307 8 188 6.4 11.3 0.00 0.00 0.00 51 1016.1
20260503070803 8 237 4.8 6.4 0.00 0.00 0.00 51 1016.1
20260503070302 8 238 9.7 12.9 0.00 0.00 0.00 51 1016.2
20260503060232 8 157 3.2 3.2 0.00 0.00 0.00 48 1016.8
20260503054719 9 212 4.8 4.8 0.00 0.00 0.00 48 1016.9
20260503054216 9 155 6.4 9.7 0.00 0.00 0.00 48 1017.1
20260503053714 9 124 3.2 3.2 0.00 0.00 0.00 47 1017.2
20260503053213 9 294 6.4 6.4 0.00 0.00 0.00 47 1017.0
20260503052708 9 199 4.8 4.8 0.00 0.00 0.00 47 1017.0
20260503052205 9 200 8.0 9.7 0.00 0.00 0.00 47 1017.1
20260503051700 9 216 6.4 6.4 0.00 0.00 0.00 47 1017.0
20260503051159 9 167 3.2 3.2 0.00 0.00 0.00 48 1017.2
20260503050655 9 202 3.2 4.8 0.00 0.00 0.00 48 1017.3
20260503050151 9 229 1.6 1.6 0.00 0.00 0.00 48 1017.3
20260503045649 9 191 6.4 6.4 0.00 0.00 0.00 47 1017.3
20260503045146 9 163 3.2 3.2 0.00 0.00 0.00 47 1017.3
20260503044643 9 209 3.2 3.2 0.00 0.00 0.00 48 1017.2
20260503044140 9 172 4.8 6.4 0.00 0.00 0.00 47 1017.4
20260503043637 9 176 4.8 6.4 0.00 0.00 0.00 48 1017.2
20260503043134 9 205 4.8 4.8 0.00 0.00 0.00 48 1017.4
20260503042630 9 209 6.4 9.7 0.00 0.00 0.00 48 1017.3
20260503042126 9 155 4.8 4.8 0.00 0.00 0.00 48 1017.4
20260503041623 10 214 1.6 3.2 0.00 0.00 0.00 48 1017.4
20260503041121 9 198 3.2 4.8 0.00 0.00 0.00 48 1017.4
20260503040618 9 136 1.6 3.2 0.00 0.00 0.00 49 1017.4
20260503040115 9 83 1.6 4.8 0.00 0.00 0.00 48 1017.4
20260503035612 9 207 3.2 4.8 0.00 0.00 0.00 49 1017.4
20260503035109 9 208 3.2 3.2 0.00 0.00 0.00 49 1017.7
20260503034607 9 192 1.6 1.6 0.00 0.00 0.00 49 1017.4
20260503034104 9 136 1.6 3.2 0.00 0.00 0.00 50 1017.6
20260503033600 9 168 3.2 4.8 0.00 0.00 0.00 49 1017.6
20260503033059 9 155 1.6 1.6 0.00 0.00 0.00 49 1017.6
20260503032557 9 147 0.0 1.6 0.00 0.00 0.00 49 1017.5
20260503032054 9 150 1.6 1.6 0.00 0.00 0.00 49 1017.7
20260503031552 9 157 0.0 0.0 0.00 0.00 0.00 49 1017.6
20260503031049 9 158 1.6 1.6 0.00 0.00 0.00 49 1017.7
20260503030545 9 155 0.0 0.0 0.00 0.00 0.00 50 1017.7
20260503030042 9 162 0.0 0.0 0.00 0.00 0.00 50 1017.6
20260503025539 10 181 0.0 0.0 0.00 0.00 0.00 49 1017.7
20260503025037 9 153 0.0 0.0 0.00 0.00 0.00 49 1017.8